This is the latest recevied weather packets stored in our database for station/object W1SCW. If no packets are shown the sender has not sent any weather packets the latest 10 day(s).
| Time | Temp. | Humidity | Pressure | Rain* | Wind** | Luminosity | Snow |
|---|---|---|---|---|---|---|---|
| 1787752807 | 30° C | 81% | 1016.1 hPa | 0 mm | - | 228 W/m² | - |
| 1787752505 | 30° C | 81% | 1015.9 hPa | 0 mm | - | 228 W/m² | - |
| 1787752201 | 30° C | 81% | 1015.9 hPa | 0 mm | - | 228 W/m² | - |
| 1787751899 | 30° C | 81% | 1016 hPa | 0 mm | - | 223 W/m² | - |
| 1787751595 | 30° C | 81% | 1015.6 hPa | 0 mm | - | 203 W/m² | - |
| 1787751290 | 30° C | 81% | 1015.9 hPa | 0 mm | - | 194 W/m² | - |
| 1787750986 | 30° C | 81% | 1015.6 hPa | 0 mm | - | 194 W/m² | - |
| 1787750680 | 29.44° C | 82% | 1015.7 hPa | 0 mm | - | 166 W/m² | - |
| 1787750374 | 29.44° C | 83% | 1015.7 hPa | 0 mm | - | 146 W/m² | - |
| 1787750069 | 29.44° C | 84% | 1015.7 hPa | 0 mm | - | 128 W/m² | - |
| 1787749766 | 29.44° C | 84% | 1015.8 hPa | 0 mm | - | 102 W/m² | - |
| 1787749461 | 27.78° C | 90% | 1015.9 hPa | 0 mm | - | 54 W/m² | - |
| 1787749155 | 27.78° C | 90% | 1015.6 hPa | 0 mm | - | 54 W/m² | - |
| 1787748850 | 27.78° C | 90% | 1015.6 hPa | 0 mm | - | 54 W/m² | - |
| 1787748549 | 27.78° C | 90% | 1015.6 hPa | 0 mm | - | 54 W/m² | - |
| 1787748246 | 27.78° C | 90% | 1015.5 hPa | 0 mm | - | 54 W/m² | - |
| 1787747941 | 26.67° C | 93% | 1015.1 hPa | 0 mm | - | 23 W/m² | - |
| 1787747636 | 26.67° C | 93% | 1015.3 hPa | 0 mm | - | 23 W/m² | - |
| 1787747330 | 26.67° C | 93% | 1015 hPa | 0 mm | - | 23 W/m² | - |
| 1787747024 | 26.67° C | 93% | 1015.1 hPa | 0 mm | - | 23 W/m² | - |
| 1787746721 | 26.67° C | 93% | 1015.1 hPa | 0 mm | - | 2 W/m² | - |
| 1787746420 | 26.67° C | 93% | 1015 hPa | 0 mm | - | 2 W/m² | - |
| 1787746118 | 26.67° C | 93% | 1014.9 hPa | 0 mm | - | 2 W/m² | - |
| 1787745814 | 26.67° C | 93% | 1014.7 hPa | 0 mm | - | 2 W/m² | - |
| 1787745512 | 26.67° C | 93% | 1014.6 hPa | 0 mm | - | 2 W/m² | - |
* Rain latest hour (hover to see other rain measurements)
** Current wind speed in m/s (hover to see current wind gust speed)